Flag for Germany Weather past 2 weeks in Ravensburg, Baden-Württemberg, Germany

Now
66 °F

Sunny.


Feels Like: 66 °F
Forecast: 37 / 67 °F
Wind: 13 mph from North

Location: Friedrichshafen Airport

Current Time: Apr 21, 2015 at 2:09:04 PM

Latest Report: Apr 21, 2015 at 1:20 PM


Visibility: 10 mi

Pressure: 30.36 "Hg

Humidity: 26%

Dew point: 30 °F

Location of RavensburgLocation

Historic Weather in Ravensburg — Graph

°F

Ravensburg temperature yesterday

Maximum temperature yesterday: 64 °F (at 3:50 PM)
Minimum temperature yesterday: 39 °F (at 4:20 AM)
Average temperature yesterday: 52 °F

Past Weeks' High & Low Weather Summary

 TemperatureHumidityPressure
High72 °F (Apr 15, 3:50 PM)94% (Apr 17, 9:50 PM)30.57 "Hg (Apr 17, 9:50 PM)
Low27 °F (Apr 8, 4:20 AM)15% (Apr 15, 5:20 PM)29.92 "Hg (Apr 16, 5:50 PM)
Average50 °F55%30.26 "Hg
* Reported Apr 6 12:20 PM — Apr 21 12:50 PM, Ravensburg, Weather by CustomWeather, © 2015

Note: Actual official high and low records may vary slightly from our data, if they occured in-between our weather recording intervals... More about our weather records

Advertising

Ravensburg weather history for previous 24 hours

 ConditionsComfort  
Time TempWeatherWind HumidityBarometerVisibility
12:50 PM
Tue, Apr 21
63 °FPassing clouds.10 mph30%30.36 "HgN/A
12:20 PM63 °FSunny.10 mph32%30.36 "Hg10 mi
11:50 AM63 °FPassing clouds.7 mph34%30.36 "HgN/A
11:20 AM61 °FSunny.5 mph36%30.36 "Hg10 mi
10:50 AM59 °FSunny.5 mph39%30.36 "Hg10 mi
10:20 AM57 °FSunny.6 mph41%30.36 "Hg10 mi
9:50 AM55 °FSunny.6 mph44%30.36 "Hg10 mi
9:20 AM52 °FSunny.6 mph50%30.36 "Hg10 mi
8:50 AM50 °FPassing clouds.6 mph54%30.36 "HgN/A
8:20 AM46 °FPassing clouds.6 mph62%30.36 "HgN/A
7:20 AM41 °FClear.2 mph70%30.36 "Hg10 mi
6:50 AM37 °FClear.3 mph81%30.33 "Hg10 mi
6:20 AM41 °FClear.5 mph66%30.33 "Hg10 mi
5:20 AM37 °FChilly.5 mph81%30.30 "HgN/A
4:50 AM41 °FQuite cool.5 mph70%30.30 "HgN/A
4:20 AM41 °FQuite cool.1 mph70%30.30 "HgN/A
3:50 AM43 °FQuite cool.6 mph66%30.30 "HgN/A
3:20 AM41 °FQuite cool.5 mph70%30.30 "HgN/A
2:50 AM41 °FQuite cool.3 mph70%30.30 "HgN/A
2:20 AM43 °FQuite cool.5 mph66%30.30 "HgN/A
1:50 AM46 °FCool.5 mph53%30.30 "HgN/A
1:20 AM48 °FCool.7 mph50%30.30 "HgN/A
12:50 AM48 °FCool.6 mph50%30.30 "HgN/A
12:20 AM45 °FQuite cool.5 mph61%30.30 "HgN/A
11:50 PM
Mon, Apr 20
46 °FCool.3 mph57%30.30 "HgN/A
11:20 PM50 °FCool.6 mph47%30.30 "HgN/A
10:50 PM52 °FCool.6 mph41%30.30 "HgN/A
10:20 PM54 °FCool.5 mph38%30.27 "HgN/A
9:50 PM54 °FClear.5 mph38%30.27 "Hg10 mi
9:20 PM55 °FClear.5 mph33%30.27 "Hg10 mi
8:50 PM55 °FSunny.5 mph36%30.24 "Hg10 mi
8:20 PM57 °FSunny.3 mph33%30.24 "Hg10 mi
7:50 PM59 °FSunny.6 mph29%30.21 "Hg10 mi
7:20 PM61 °FSunny.10 mph27%30.21 "Hg10 mi
6:50 PM63 °FSunny.8 mph25%30.21 "Hg10 mi
6:20 PM63 °FSunny.9 mph22%30.21 "Hg10 mi
5:50 PM63 °FSunny.8 mph25%30.21 "Hg10 mi
5:20 PM64 °FSunny.10 mph28%30.21 "Hg10 mi
4:50 PM64 °FSunny.10 mph28%30.21 "Hg10 mi
4:20 PM64 °FSunny.8 mph24%30.21 "Hg10 mi
3:50 PM64 °FPassing clouds.8 mph24%30.21 "HgN/A
3:20 PM63 °FPassing clouds.9 mph30%30.21 "HgN/A
2:50 PM63 °FPassing clouds.10 mph27%30.21 "HgN/A
2:20 PM63 °FPassing clouds.8 mph27%30.21 "HgN/A
Weather by CustomWeather, © 2015

See weather overviewHow to use our weather pages